Weather in Katsuta

Japan     36°21′10″N   140°32′04″E
temp.,
°C
wind,
m/s
gust,
m/s
humid.,
%
clouds,
%
prec.,
mm/h
press.,
hPa
HPBL,
m
7 may, fri
fri700:00+16nw1170100 0.0 101813
03:00+15n0068100 0.0 101815
06:00+16n1165100 0.0 101849
09:00+19e1248100 0.0 1017445
12:00+19ese2349100 0.0 1014450
15:00+18ese2358100 0.1 1011180
18:00+15s1283100 1.3 1010358
21:00+14ssw2488100 2.5 1009404
8 may, sat
sat800:00+14wsw2687100 0.0 1007390
03:00+14w11900 0.0 100648
06:00+14s11895 0.0 1007111
09:00+19se2267100 0.0 1009592
12:00+21ese4362100 0.0 1008729
15:00+20e4571100 0.0 1008580
18:00+19ne3481100 0.0 1007320
21:00+18e1188100 0.0 100834
9 may, sun
sun900:00+17ssw3879100 0.0 1006625
03:00+18ssw51181100 0.0 1003671
06:00+18sw4975100 0.0 1004450
09:00+22sw34550 0.0 1003886
12:00+27wsw36314 0.0 10011637
15:00+21ne81055100 0.0 1002552
18:00+20ene465611 0.0 1005599
21:00+17ene476325 0.0 1008422
10 may, mon
mon1000:00+16ne475817 0.0 1009569
03:00+15ne2357100 0.0 1010252
06:00+16ne24546 0.0 1011547
09:00+19e225065 0.0 10111385
12:00+21ese54461 0.0 10101290
15:00+20se77539 0.0 1010729
18:00+19sse686094 0.0 1010852
21:00+18ne127092 0.1 1012106
11 may, tue
tue1100:00+15nne5778100 0.0 1013371
03:00+15ne3465100 0.1 1012214
06:00+16nne2359100 0.0 1014252
09:00+17s1251100 0.0 1015483
12:00+19se3345100 0.0 1014999
15:00+18se3447100 0.0 1013478
18:00+17se3559100 0.0 1014329
21:00+17sse2571100 0.0 1015263